Back to catalog

THORAD AGENA D DEB

AliveLEO
NORAD 4709·DEBRIS·🇺🇸 United States

Launched Apr 8, 1970 from Vandenberg Space Force Base

Loading…

Next Passes (next 24 hours)

TLE

FreshSource: Space-Track

Epoch: Sep 14, 2026, 07:05 UTC

1 04709U 70025BX  26257.29571935  .00002723  00000-0  54272-3 0  9994
2 04709 100.0139 204.5670 0068679 217.7444 141.8923 14.61657505916223

Track THORAD AGENA D DEB in real time with AllMySat

Download on the App Store